Debrecen, Hungary

9:43 AM CET on December 13, 2017 (GMT +0100)
Debrecen

Weather History for LHDC - January, 2013

Change the Weather History Date:

Friday, January 4, 2013

  Actual Average Record
Temperature  
Mean Temperature 37 °F -  
Max Temperature 42 °F 34 °F - ()
Min Temperature 32 °F 23 °F - ()
Degree Days  
Heating Degree Days 28    
Moisture  
Dew Point 35 °F    
Average Humidity 92    
Maximum Humidity 100    
Minimum Humidity 81    
Precipitation  
Precipitation 0.00 in 0.05 in - ()
Sea Level Pressure  
Sea Level Pressure 30.18 in    
Wind  
Wind Speed 6 mph ()    
Max Wind Speed 13 mph    
Max Gust Speed -    
Visibility 4.2 miles    
Events      
T = Trace of Precipitation, MM = Missing Value Source: Averaged Metar Reports

Daily Weather History Graph

Daily Weather History Graph

Search for Another Location

Airport or City:

Trip Planner

Search our weather history database for the weather conditions in past years. The results will help you decide how hot, cold, wet, or windy it might be!

Date:

Astronomy

Jan. 04, 2013 Rise Set
Actual Time 7:21 AM CET 3:56 PM CET
Civil Twilight 6:45 AM CET 4:31 PM CET
Nautical Twilight 6:06 AM CET 5:10 PM CET
Astronomical Twilight 5:29 AM CET 5:48 PM CET
Moon 11:50 PM CET (1/4) 10:22 AM CET (1/4)
Length of Visible Light 9h 46m
Length of Day
8h 35m
Waning Gibbous, 58% of the Moon is Illuminated
Jan 4
Waning Gibbous
Jan 5
Last Quarter
Jan 11
New
Jan 19
First Quarter
Jan 27
Full

Hourly Weather History & Observations

Time (CET) Temp. Windchill Dew Point Humidity Pressure Visibility Wind Dir Wind Speed Gust Speed Precip Events Conditions
1:00 AM 34 °F - 33 °F 94% 30.28 in - South 13.4 mph - -  
5:15 AM 35.6 °F 28.6 °F 33.8 °F 93% 30.18 in 6.2 mi SSW 9.2 mph - N/A   Mostly Cloudy
5:45 AM 35.6 °F 29.2 °F 33.8 °F 93% 30.18 in 6.2 mi South 8.1 mph - N/A   Mostly Cloudy
6:00 AM - - - N/A% - 6.2 mi West 8.1 mph - N/A   Scattered Clouds
6:15 AM 35.6 °F 29.9 °F 33.8 °F 93% 30.18 in 6.2 mi South 6.9 mph - N/A   Mostly Cloudy
6:45 AM 33.8 °F 27.0 °F 32.0 °F 93% 30.18 in 4.3 mi SSW 8.1 mph - N/A   Scattered Clouds
7:00 AM 34 °F - 33 °F 92% 30.21 in 4 mi SSW 6.7 mph - -   Partly Cloudy
7:15 AM 33.8 °F 28.6 °F 32.0 °F 93% 30.18 in 2.8 mi SW 5.8 mph - N/A   Scattered Clouds
7:16 AM 33.8 °F - 32.0 °F 93% 30.21 in - SW 2.3 mph - N/A   Scattered Clouds
7:45 AM 32.0 °F 28.7 °F 32.0 °F 100% 30.18 in 2.2 mi South 3.5 mph - N/A   Scattered Clouds
8:15 AM 33.8 °F 27.7 °F 32.0 °F 93% 30.18 in 2.2 mi South 6.9 mph - N/A   Mostly Cloudy
9:00 AM - - - N/A% - 2.5 mi SSW 6.9 mph - N/A   Scattered Clouds
9:15 AM 35.6 °F 32.8 °F 33.8 °F 93% 30.18 in - South 3.5 mph - N/A   Mostly Cloudy
9:45 AM 35.6 °F 30.7 °F 33.8 °F 93% 30.18 in 2.5 mi South 5.8 mph - N/A   Mostly Cloudy
10:15 AM 35.6 °F 30.7 °F 35.6 °F 100% 30.21 in - South 5.8 mph - N/A   Mostly Cloudy
10:45 AM 37.4 °F 32.8 °F 35.6 °F 93% 30.18 in 2.8 mi South 5.8 mph - N/A   Mostly Cloudy
11:15 AM 37.4 °F 32.1 °F 35.6 °F 93% 30.18 in - South 6.9 mph - N/A   Mostly Cloudy
11:45 AM 37.4 °F 31.4 °F 35.6 °F 93% 30.18 in 3.1 mi South 8.1 mph - N/A   Mostly Cloudy
12:00 PM - - - N/A% - 4.3 mi SSW 6.9 mph - N/A   Scattered Clouds
12:15 PM 39.2 °F 35.0 °F 37.4 °F 93% 30.18 in 3.1 mi South 5.8 mph - N/A   Mostly Cloudy
12:45 PM 39.2 °F 35.0 °F 37.4 °F 93% 30.18 in 3.1 mi South 5.8 mph - N/A   Mostly Cloudy
1:00 PM 39 °F - 37 °F 88% 30.18 in 3 mi South 6.7 mph - -   Mist
1:05 PM 39.2 °F 35.0 °F 37.4 °F 93% 30.18 in 3.7 mi South 5.8 mph - N/A   Scattered Clouds
1:15 PM 39.2 °F 35.9 °F 37.4 °F 93% 30.18 in 3.7 mi South 4.6 mph - N/A   Scattered Clouds
1:45 PM 42.8 °F 40.1 °F 37.4 °F 81% 30.18 in 5.0 mi SE 4.6 mph - N/A   Scattered Clouds
2:15 PM 42.8 °F 40.1 °F 37.4 °F 81% 30.15 in 6.2 mi South 4.6 mph - N/A   Scattered Clouds
2:45 PM 42.8 °F 39.3 °F 37.4 °F 81% 30.15 in 6.2 mi South 5.8 mph - N/A   Partly Cloudy
3:15 PM 41.0 °F 37.1 °F 37.4 °F 87% 30.15 in 6.2 mi South 5.8 mph - N/A   Partly Cloudy
3:45 PM 37.4 °F 32.8 °F 35.6 °F 93% 30.15 in 6.2 mi South 5.8 mph - N/A   Scattered Clouds
4:15 PM 37.4 °F 32.8 °F 33.8 °F 87% 30.15 in 4.3 mi SSW 5.8 mph - N/A   Scattered Clouds
4:45 PM 35.6 °F 32.8 °F 33.8 °F 93% 30.15 in 3.7 mi South 3.5 mph - N/A   Scattered Clouds
5:00 PM - - - N/A% - - North - - N/A   Unknown
7:00 PM 34 °F - 33 °F 96% 30.17 in - Calm Calm - -